[[{"header":{"parameterUnit":"m.s-1","parameterCategory":1,"la1":30.2992,"la2":30.254,"lo1":-89.0895,"lo2":-89.0443,"dy":0.0025,"dx":0.0025,"nx":19,"ny":19,"refTime":"2026-05-02T09:00:00:Z","depth":0,"parameterNumber":2,"parameterNumberName":"U-component_of_WINDS"},"data":[0,0,0,-0.3226,-0.3227,-0.3277,-0.3277,-0.3341,-0.3341,0,0,0,0,0,0,0,0,0,0,0,-0.3211,-0.3212,-0.3226,-0.3227,-0.3277,-0.3277,-0.334,-0.3341,0,0,0,0,0,0,0,0,0,0,0,-0.3211,-0.3212,-0.3212,-0.3228,-0.3277,-0.3277,-0.334,-0.3303,0,0,0,0,0,0,0,0,0,0,-0.3255,-0.3241,-0.3212,-0.3212,-0.3228,-0.3277,-0.3277,-0.3301,-0.3305,-0.3318,0,-0.3329,0,-0.3336,-0.3345,-0.3346,0,0,0,-0.3228,-0.3238,-0.3251,-0.3212,-0.3228,-0.3277,-0.3255,-0.3303,-0.3308,-0.3323,-0.333,-0.3332,-0.3337,-0.3346,-0.3346,-0.3418,-0.3418,0,0,-0.3225,-0.3221,-0.3248,-0.3254,-0.3246,-0.3253,-0.3256,-0.3306,-0.3313,-0.333,-0.3334,-0.3338,-0.3346,-0.3347,-0.3418,-0.3418,0,0,0,-0.3217,-0.3219,-0.3231,-0.3251,-0.326,-0.3254,-0.3258,-0.3311,-0.3315,-0.3335,-0.3339,-0.3346,-0.3347,-0.3417,-0.3418,-0.3431,0,0,0,-0.3215,-0.3214,-0.3229,-0.3227,-0.3259,-0.3286,-0.3262,-0.3312,-0.3318,-0.3339,-0.3347,-0.3348,-0.3417,-0.3418,-0.3429,-0.3438,0,0,0,-0.3208,-0.3213,-0.322,-0.3227,-0.3248,-0.3286,-0.3293,-0.3313,-0.332,-0.3346,-0.3348,-0.3417,-0.3418,-0.3428,-0.3436,-0.3456,0,0,0,-0.32,-0.3231,-0.322,-0.3256,-0.3248,-0.3292,-0.3292,-0.3326,-0.3349,-0.3347,-0.3417,-0.3418,-0.3428,-0.3435,-0.3455,-0.3473,-0.348,0,0,-0.3237,-0.3235,-0.3257,-0.3249,-0.3294,-0.3285,-0.3333,-0.3358,-0.3364,-0.34,-0.3402,-0.343,-0.3436,-0.3456,-0.3517,-0.3522,0,0,0,-0.3267,-0.3283,-0.3296,-0.3317,-0.3336,-0.3354,-0.3372,-0.3381,-0.3412,-0.3382,-0.3442,-0.3446,-0.3457,-0.3467,-0.3471,-0.3482,-0.3421,-0.3421,-0.3421,-0.3315,-0.332,-0.3356,-0.3368,-0.3388,-0.3406,-0.3424,-0.3439,-0.3439,-0.3453,-0.3464,-0.35,-0.3511,-0.3514,-0.3525,-0.3473,-0.3473,-0.3473,-0.3473,-0.3371,-0.3394,-0.3392,-0.3426,-0.3432,-0.3461,-0.3479,-0.3478,-0.3506,-0.3493,-0.3503,-0.349,-0.352,-0.353,-0.3474,-0.3474,-0.3474,-0.3474,-0.3474,-0.3404,-0.3416,-0.3426,-0.3457,-0.348,-0.349,-0.3517,-0.352,-0.3524,-0.3534,-0.3547,-0.3547,-0.3549,-0.354,-0.354,-0.354,-0.354,-0.354,-0.354,-0.3436,-0.3446,-0.3468,-0.349,-0.3504,-0.3523,-0.3539,-0.3553,-0.3569,-0.357,-0.357,-0.357,-0.3521,-0.351,-0.3542,-0.3542,-0.3542,-0.3542,-0.3541,-0.3493,-0.348,-0.3515,-0.3529,-0.3554,-0.3577,-0.358,-0.3608,-0.362,-0.3633,-0.3629,-0.3592,-0.3591,-0.3587,-0.3578,-0.3627,-0.3627,-0.3627,-0.3627,-0.3523,-0.3522,-0.3558,-0.3579,-0.3601,-0.3607,-0.3645,-0.3658,-0.3669,-0.3677,-0.367,-0.3657,-0.3653,-0.3655,-0.365,-0.3641,-0.3705,-0.3705,-0.3705,-0.3559,-0.356,-0.3593,-0.3603,-0.3623,-0.364,-0.3677,-0.3702,-0.3711,-0.3708,-0.3683,-0.368,-0.3659,-0.3652,-0.3651,-0.3643,-0.3628,0,0]},{"header":{"parameterUnit":"m.s-1","parameterCategory":1,"la1":30.2992,"la2":30.254,"lo1":-89.0895,"lo2":-89.0443,"dy":0.0025,"dx":0.0025,"nx":19,"ny":19,"refTime":"2026-05-02T09:00:00:Z","depth":0,"parameterNumber":3,"parameterNumberName":"V-component_of_WINDS"},"data":[0,0,0,-7.2051,-7.2054,-7.2198,-7.2198,-7.2387,-7.2389,0,0,0,0,0,0,0,0,0,0,0,-7.2014,-7.2016,-7.205,-7.2054,-7.2198,-7.2198,-7.2387,-7.2389,0,0,0,0,0,0,0,0,0,0,0,-7.2013,-7.2015,-7.2017,-7.2055,-7.2198,-7.2198,-7.2387,-7.2276,0,0,0,0,0,0,0,0,0,0,-7.2135,-7.2108,-7.2015,-7.2017,-7.2056,-7.2198,-7.2198,-7.227,-7.2283,-7.2326,0,-7.2368,0,-7.2382,-7.2402,-7.2403,0,0,0,-7.2049,-7.2098,-7.2131,-7.2018,-7.2057,-7.2197,-7.2131,-7.2277,-7.2291,-7.2342,-7.2371,-7.2377,-7.2385,-7.2404,-7.2405,-7.2679,-7.268,0,0,-7.2041,-7.2042,-7.2122,-7.2141,-7.2122,-7.2127,-7.2136,-7.2285,-7.2315,-7.2371,-7.2382,-7.2388,-7.2405,-7.2407,-7.2677,-7.2679,0,0,0,-7.2022,-7.2037,-7.2067,-7.2133,-7.2159,-7.2131,-7.2142,-7.2309,-7.2318,-7.2384,-7.239,-7.2406,-7.2409,-7.2676,-7.2678,-7.2758,0,0,0,-7.2017,-7.2026,-7.2064,-7.2066,-7.2156,-7.2236,-7.2162,-7.2308,-7.2325,-7.2389,-7.2406,-7.2411,-7.2674,-7.2677,-7.2753,-7.2796,0,0,0,-7.2003,-7.2024,-7.2048,-7.2066,-7.2128,-7.2234,-7.2252,-7.2312,-7.233,-7.2403,-7.2411,-7.2673,-7.2676,-7.2747,-7.2788,-7.2871,0,0,0,-7.1987,-7.2114,-7.2049,-7.2193,-7.2127,-7.2283,-7.2251,-7.2366,-7.2439,-7.2407,-7.2674,-7.2678,-7.2746,-7.2782,-7.2865,-7.2943,-7.2975,0,0,-7.2148,-7.2133,-7.2218,-7.2164,-7.2333,-7.2261,-7.244,-7.2503,-7.2506,-7.262,-7.2627,-7.2754,-7.2787,-7.287,-7.3151,-7.3177,0,0,0,-7.227,-7.2331,-7.2375,-7.2447,-7.25,-7.2549,-7.2585,-7.2608,-7.2706,-7.2566,-7.2806,-7.2825,-7.2873,-7.2911,-7.2932,-7.2975,-7.2694,-7.2694,-7.2694,-7.25,-7.2501,-7.2641,-7.266,-7.2729,-7.2766,-7.2822,-7.2859,-7.2836,-7.2893,-7.2928,-7.3099,-7.3142,-7.3158,-7.3202,-7.2966,-7.2967,-7.2967,-7.2967,-7.2738,-7.2826,-7.2795,-7.2922,-7.292,-7.3024,-7.3064,-7.3045,-7.3141,-7.3072,-7.3114,-7.3041,-7.3187,-7.3225,-7.2973,-7.2972,-7.2972,-7.2971,-7.297,-7.2891,-7.2933,-7.2962,-7.3066,-7.3146,-7.3158,-7.3253,-7.3247,-7.3241,-7.3283,-7.332,-7.3319,-7.3319,-7.3301,-7.3302,-7.3302,-7.3303,-7.3303,-7.3304,-7.304,-7.3069,-7.3152,-7.3221,-7.3267,-7.3326,-7.3364,-7.3408,-7.3455,-7.3443,-7.3443,-7.3416,-7.3201,-7.3148,-7.3313,-7.3311,-7.331,-7.3309,-7.3309,-7.3285,-7.3229,-7.3357,-7.3404,-7.3484,-7.3564,-7.3555,-7.3646,-7.368,-7.3728,-7.3691,-7.3532,-7.3516,-7.3499,-7.3455,-7.369,-7.369,-7.369,-7.369,-7.3416,-7.3407,-7.3538,-7.3613,-7.3685,-7.3691,-7.3834,-7.3865,-7.3887,-7.3908,-7.3872,-7.3813,-7.3796,-7.379,-7.3766,-7.3726,-7.4024,-7.4024,-7.4025,-7.3568,-7.3566,-7.3691,-7.3715,-7.3778,-7.3831,-7.3966,-7.4051,-7.4064,-7.4038,-7.3925,-7.3911,-7.3816,-7.3784,-7.3758,-7.3721,-7.3647,0,0]}]]